GPS IIR-21(M)

operational
NORAD ID: 35752 Int'l Des: 2009-043 Owner: AFSMC Country: US Constellation: GPS
MEOCIRCULARGNSS

关于 GPS IIR-21(M)

正在加载描述...

实时位置

正在加载3D地球...

即将过境

高度历史

Altitude vs Time

uPlot chart will show altitude changes over time

两行轨道根数

1 35752U 09043A 25303.77221395 -.00000060 00000-0 00000+0 0 9993
2 35752 56.0624 36.4775 0053173 82.2830 278.1239 2.00568226118756
Epoch: Oct 30, 2025 • Age: 12 hours

当前状态

高度 20197.3 km
速度 3.87 km/s
星下点 -11.06°S, 101.83°W
发射日期 Aug 17, 2009
运行时间 16.2 years
类型 navigation

技术详情

分类 Payload
质量 1077.00 kg
干质量 910.00 kg
总质量 2032.00 kg
长度 1.50 m
直径 1.90 m
跨度 19.30 m
形状 Box + 2 Pan
制造商 LMVF
平台类型 Series 4000
阶段状态 In Orbit
所有者/国家 AFSMC/US

大型星座

Loading constellations...